ROBUSTA-1B (42792 NORAD) Tracking and Keplerian Element Data

This shows tracking and keplerian element data for the satellite.

Feedback or suggestion? Click here.




ElementValue
Catalog42792
NameROBUSTA-1B
Epoch Orbit5871
Epoch Day195.71768249
Epoch Year2018
RAAN255.2105
Inclination97.3991
Eccentricity0.0010866
Argument of Perigee349.8677
Mean Anonmoly10.2339
Mean Motion15.22107461
Decay Rate1.091E-05
L11 42792U 17036AD 18195.71768249 .00001091 00000-0 50615-4 0 9991
L22 42792 97.3991 255.2105 0010866 349.8677 10.2339 15.22107461 58717

Live tracking and technical data element details for ROBUSTA-1B (NORAD 42792). ROBUSTA-1B can be tracked NOW for your location showing map with azimuth and elevation plus other details from your city location.

Track the satellite on the map from your city or location and see movement details for azimuth, elevation, latitude, longitude, range, height, and movement on the map or in text.







IsCatalogInMostPopularTable: catalog: 42792, numindb: 66
Update: records affected: 1



GetName: 42792 ROBUSTA-1B

Hit Count: updated at: Sun, 15 Jul 2018 23:13:02 GMT